User: anonymous   Login
Location: Unspecified
(0.0000°N, 0.0000°E)
Time: 10:13:54
(UTC+00:00)
Language:

GONETS M 07 - Orbit

View from above orbital plane
View from above orbital plane
View from above satellite
View from above satellite

Ground track
Ground track

The orbit data is extracted from the following two-line orbital elements,

1 39251U 13048C   18113.87260988  .00000022  00000-0  84503-4 0  9996
2 39251  82.4930  40.0646 0014738 218.9964 141.0065 12.42881658209283
Epoch (UTC): 23 April 2018 20:56:33
Eccentricity: 0.0014738
inclination: 82.4930°
perigee height: 1483 km
apogee height: 1506 km
right ascension of ascending node: 40.0646°
argument of perigee: 218.9964°
revolutions per day: 12.42881658
mean anomaly at epoch: 141.0065°
orbit number at epoch: 20928

The dashed part of the orbit path shows where the satellite is in the earth's shadow,  

DLR